Weather History for Whiteman AFB, MO

Change the Weather History Date:

Wednesday, October 27, 2010

  Actual Average Record
Temperature  
Mean Temperature 56 °F -  
Max Temperature 67 °F 61 °F 82 °F (1999)
Min Temperature 46 °F 44 °F 26 °F (2012)
Degree Days  
Heating Degree Days 8    
Growing Degree Days 6 (Base 50)    
Moisture  
Dew Point 29 °F    
Average Humidity 38    
Maximum Humidity 57    
Minimum Humidity 19    
Precipitation  
Precipitation 0.00 in - - ()
Sea Level Pressure  
Sea Level Pressure 29.84 in    
Wind  
Wind Speed 14 mph (WSW)    
Max Wind Speed 22 mph    
Max Gust Speed 31 mph    
Visibility 10 miles    
Events      
Averages and records for this station are not official NWS values.
T = Trace of Precipitation, MM = Missing Value Source: NWS Daily Summary

Daily Weather History Graph

Daily Weather History Graph

Search for Another Location

Airport:

Trip Planner

Search our weather history database for the weather conditions in past years. The results will help you decide how hot, cold, wet, or windy it might be!

Date:

Astronomy

Oct. 27, 2010 Rise Set
Actual Time 7:35 AM CDT 6:19 PM CDT
Civil Twilight 7:08 AM CDT 6:47 PM CDT
Nautical Twilight 6:37 AM CDT 7:18 PM CDT
Astronomical Twilight 6:06 AM CDT 7:49 PM CDT
Moon 9:46 PM CDT (10/27) 12:07 PM CDT (10/27)
Length of Visible Light 11h 38m
Length of Day
10h 44m
Waning Gibbous, 79% of the Moon is Illuminated
Oct 27
Waning Gibbous
Oct 30
Last Quarter
Nov 5
New
Nov 13
First Quarter
Nov 21
Full

Hourly Weather History & Observations

Time (CDT) Temp. Dew Point Humidity Pressure Visibility Wind Dir Wind Speed Gust Speed Precip Events Conditions
12:55 AM 52.7 °F 31.1 °F 44% 29.62 in 10.0 mi SSW 13.8 mph - N/A   Clear
1:55 AM 51.3 °F 32.0 °F 48% 29.64 in 10.0 mi SSW 13.8 mph - N/A   Clear
2:55 AM 49.3 °F 33.3 °F 54% 29.65 in 10.0 mi SSW 12.7 mph - N/A   Clear
3:55 AM 50.5 °F 32.2 °F 49% 29.66 in 10.0 mi SSW 12.7 mph - N/A   Scattered Clouds
4:55 AM 52.2 °F 31.3 °F 45% 29.67 in 10.0 mi SW 12.7 mph - N/A   Scattered Clouds
5:55 AM 50.4 °F 32.0 °F 49% 29.69 in 10.0 mi SW 15.0 mph - N/A   Scattered Clouds
6:55 AM 47.8 °F 32.0 °F 54% 29.72 in 10.0 mi SW 15.0 mph 19.6 mph N/A   Clear
7:55 AM 46.9 °F 32.2 °F 57% 29.77 in 10.0 mi SW 10.4 mph - N/A   Partly Cloudy
8:55 AM 50.7 °F 32.5 °F 50% 29.80 in 10.0 mi WSW 9.2 mph - N/A   Scattered Clouds
9:55 AM 55.6 °F 31.5 °F 40% 29.81 in 10.0 mi West 12.7 mph - N/A   Clear
10:55 AM 60.3 °F 31.3 °F 34% 29.82 in 10.0 mi WSW 11.5 mph - N/A   Clear
11:55 AM 63.1 °F 30.7 °F 30% 29.83 in 10.0 mi West 17.3 mph 25.3 mph N/A   Clear
12:55 PM 64.9 °F 29.1 °F 26% 29.84 in 10.0 mi West 21.9 mph 29.9 mph N/A   Clear
1:55 PM 65.7 °F 29.3 °F 26% 29.83 in 10.0 mi WSW 20.7 mph 26.5 mph N/A   Clear
2:55 PM 66.0 °F 29.5 °F 25% 29.84 in 10.0 mi WSW 17.3 mph 29.9 mph N/A   Clear
3:55 PM 67.5 °F 23.2 °F 19% 29.86 in 10.0 mi West 19.6 mph 31.1 mph N/A   Clear
4:55 PM 66.0 °F 23.9 °F 20% 29.88 in 10.0 mi West 15.0 mph 24.2 mph N/A   Clear
5:55 PM 63.7 °F 23.2 °F 21% 29.91 in 10.0 mi West 18.4 mph 27.6 mph N/A   Clear
6:55 PM 60.3 °F 24.6 °F 26% 29.95 in 10.0 mi West 12.7 mph - N/A   Clear
7:55 PM 55.4 °F 27.0 °F 34% 29.99 in 10.0 mi West 9.2 mph - N/A   Clear
8:55 PM 54.9 °F 27.3 °F 35% 30.03 in 10.0 mi WNW 9.2 mph - N/A   Clear
9:55 PM 52.7 °F 27.9 °F 38% 30.09 in 10.0 mi NNW 12.7 mph 25.3 mph N/A   Clear
10:55 PM 49.1 °F 28.4 °F 45% 30.12 in 10.0 mi NW 11.5 mph - N/A   Clear
11:55 PM 48.0 °F 27.9 °F 46% 30.14 in 10.0 mi WNW 16.1 mph 21.9 mph N/A   Clear